Time,TemperatureF,DewpointF,PressureIn,WindDirection,WindDirectionDegrees,WindSpeedMPH,WindSpeedGustMPH,Humidity,HourlyPrecipIn,Conditions,Clouds,dailyrainin,SoftwareType,DateUTC
2013-08-07 00:01:00,60.9,59.5,29.81,SSE,167,0.0,0.0,95,0.00,,CLR,0.00,VWS V14.01,2013-08-07 05:01:00,
2013-08-07 00:06:00,60.9,59.5,29.81,SSE,167,0.0,0.0,95,0.00,,CLR,0.00,VWS V14.01,2013-08-07 05:06:00,
2013-08-07 00:12:00,60.9,59.5,29.81,SSE,167,0.0,0.0,95,0.00,,CLR,0.00,VWS V14.01,2013-08-07 05:12:00,
2013-08-07 00:18:00,60.8,59.4,29.81,SSE,167,0.0,0.0,95,0.00,,CLR,0.00,VWS V14.01,2013-08-07 05:18:00,
2013-08-07 00:23:00,60.8,59.7,29.81,SSE,167,0.0,0.0,96,0.00,,CLR,0.00,VWS V14.01,2013-08-07 05:23:00,
2013-08-07 00:28:00,60.8,59.7,29.82,SSE,167,0.0,0.0,96,0.00,,CLR,0.00,VWS V14.01,2013-08-07 05:28:00,
2013-08-07 00:33:00,60.8,59.7,29.82,SSE,167,0.0,0.0,96,0.00,,CLR,0.00,VWS V14.01,2013-08-07 05:33:00,
2013-08-07 00:39:00,60.7,59.6,29.82,SSE,167,0.0,0.0,96,0.00,,CLR,0.00,VWS V14.01,2013-08-07 05:39:00,
2013-08-07 00:44:00,60.6,59.5,29.82,SSE,167,0.0,0.0,96,0.00,,CLR,0.00,VWS V14.01,2013-08-07 05:44:00,
2013-08-07 00:49:00,60.4,59.3,29.82,SSE,167,0.0,0.0,96,0.00,,CLR,0.00,VWS V14.01,2013-08-07 05:49:00,
2013-08-07 00:55:00,60.3,59.2,29.82,SSE,167,0.0,0.0,96,0.00,,CLR,0.00,VWS V14.01,2013-08-07 05:55:00,
2013-08-07 01:00:00,60.3,59.2,29.82,SSE,167,0.0,0.0,96,0.00,,CLR,0.00,VWS V14.01,2013-08-07 06:00:00,
2013-08-07 01:05:00,60.3,59.2,29.82,SSE,167,0.0,0.0,96,0.00,,CLR,0.00,VWS V14.01,2013-08-07 06:05:00,
2013-08-07 01:10:00,60.3,59.2,29.82,SSE,167,0.0,0.0,96,0.00,,CLR,0.00,VWS V14.01,2013-08-07 06:10:00,
2013-08-07 01:15:00,60.2,59.1,29.82,South,172,0.0,2.0,96,0.00,,CLR,0.00,VWS V14.01,2013-08-07 06:15:00,
2013-08-07 01:20:00,60.2,59.1,29.82,South,173,0.0,0.0,96,0.00,,CLR,0.00,VWS V14.01,2013-08-07 06:20:00,
2013-08-07 01:25:00,60.1,59.0,29.82,South,172,0.0,0.0,96,0.00,,CLR,0.00,VWS V14.01,2013-08-07 06:25:00,
2013-08-07 01:30:00,60.1,59.0,29.82,South,173,0.0,1.0,96,0.00,,CLR,0.00,VWS V14.01,2013-08-07 06:30:00,
2013-08-07 01:35:00,60.0,58.9,29.82,South,173,0.0,1.0,96,0.00,,CLR,0.00,VWS V14.01,2013-08-07 06:35:00,
2013-08-07 01:41:00,60.0,58.9,29.83,West,278,0.0,0.0,96,0.00,,CLR,0.00,VWS V14.01,2013-08-07 06:41:00,
2013-08-07 01:47:00,59.9,58.8,29.83,WNW,296,0.0,0.0,96,0.00,,CLR,0.00,VWS V14.01,2013-08-07 06:47:00,
2013-08-07 01:52:00,59.8,58.7,29.83,WNW,297,0.0,0.0,96,0.00,,CLR,0.00,VWS V14.01,2013-08-07 06:52:00,
2013-08-07 01:58:00,59.7,58.6,29.83,WNW,297,0.0,0.0,96,0.00,,CLR,0.00,VWS V14.01,2013-08-07 06:58:00,
2013-08-07 02:03:00,59.7,58.6,29.83,West,264,0.0,0.0,96,0.00,,CLR,0.00,VWS V14.01,2013-08-07 07:03:00,
2013-08-07 02:08:00,59.7,58.6,29.83,West,271,0.0,0.0,96,0.00,,CLR,0.00,VWS V14.01,2013-08-07 07:08:00,
2013-08-07 02:13:00,59.7,58.6,29.82,West,271,0.0,0.0,96,0.00,,CLR,0.00,VWS V14.01,2013-08-07 07:13:00,
2013-08-07 02:19:00,59.7,58.6,29.83,West,271,0.0,0.0,96,0.00,,CLR,0.00,VWS V14.01,2013-08-07 07:19:00,
2013-08-07 02:24:00,59.7,58.6,29.83,West,271,0.0,0.0,96,0.00,,CLR,0.00,VWS V14.01,2013-08-07 07:24:00,
2013-08-07 02:29:00,59.8,58.7,29.82,West,271,0.0,0.0,96,0.00,,CLR,0.00,VWS V14.01,2013-08-07 07:29:00,
2013-08-07 02:34:00,59.8,58.7,29.83,West,271,0.0,0.0,96,0.00,,CLR,0.00,VWS V14.01,2013-08-07 07:34:00,
2013-08-07 02:39:00,59.8,58.7,29.83,West,271,0.0,0.0,96,0.00,,CLR,0.00,VWS V14.01,2013-08-07 07:39:00,
2013-08-07 02:45:00,59.8,58.7,29.83,West,271,1.0,1.0,96,0.00,,CLR,0.00,VWS V14.01,2013-08-07 07:45:00,
2013-08-07 02:50:00,59.7,58.6,29.83,West,271,0.0,0.0,96,0.00,,CLR,0.00,VWS V14.01,2013-08-07 07:50:00,
2013-08-07 02:56:00,59.7,58.6,29.83,West,271,0.0,1.0,96,0.00,,CLR,0.00,VWS V14.01,2013-08-07 07:56:00,
2013-08-07 03:01:00,59.6,58.5,29.83,West,271,0.0,0.0,96,0.00,,CLR,0.00,VWS V14.01,2013-08-07 08:01:00,
2013-08-07 03:07:00,59.6,58.5,29.83,West,271,0.0,0.0,96,0.00,,CLR,0.00,VWS V14.01,2013-08-07 08:07:00,
2013-08-07 03:13:00,59.6,58.5,29.83,West,271,0.0,0.0,96,0.00,,CLR,0.00,VWS V14.01,2013-08-07 08:13:00,
2013-08-07 03:18:00,59.6,58.8,29.83,West,271,0.0,0.0,97,0.00,,CLR,0.00,VWS V14.01,2013-08-07 08:18:00,
2013-08-07 03:24:00,59.7,58.8,29.84,West,271,0.0,0.0,97,0.00,,SCT006,0.00,VWS V14.01,2013-08-07 08:24:00,
2013-08-07 03:29:00,59.8,59.0,29.84,West,271,0.0,0.0,97,0.00,,SCT006,0.00,VWS V14.01,2013-08-07 08:29:00,
2013-08-07 03:34:00,59.9,59.0,29.84,West,271,0.0,0.0,97,0.00,,SCT006,0.00,VWS V14.01,2013-08-07 08:34:00,
2013-08-07 03:40:00,60.0,59.2,29.84,West,271,0.0,0.0,97,0.00,,OVC006,0.00,VWS V14.01,2013-08-07 08:40:00,
2013-08-07 03:46:00,60.1,59.2,29.84,West,271,0.0,0.0,97,0.00,,OVC006,0.00,VWS V14.01,2013-08-07 08:46:00,
2013-08-07 03:51:00,60.1,59.2,29.84,West,271,0.0,0.0,97,0.00,,OVC006,0.00,VWS V14.01,2013-08-07 08:51:00,
2013-08-07 03:56:00,60.2,59.3,29.84,West,271,0.0,0.0,97,0.00,,OVC006,0.00,VWS V14.01,2013-08-07 08:56:00,
2013-08-07 04:01:00,60.2,59.3,29.84,West,271,0.0,0.0,97,0.00,,OVC006,0.00,VWS V14.01,2013-08-07 09:01:00,
2013-08-07 04:06:00,60.3,59.5,29.84,West,271,0.0,0.0,97,0.00,,OVC006,0.00,VWS V14.01,2013-08-07 09:06:00,
2013-08-07 04:12:00,60.3,59.5,29.84,West,271,0.0,0.0,97,0.00,,OVC006,0.00,VWS V14.01,2013-08-07 09:12:00,
2013-08-07 04:17:00,60.4,59.5,29.85,West,271,0.0,0.0,97,0.00,,OVC006,0.00,VWS V14.01,2013-08-07 09:17:00,
2013-08-07 04:22:00,60.4,59.5,29.85,West,271,0.0,0.0,97,0.00,,OVC006,0.00,VWS V14.01,2013-08-07 09:22:00,
2013-08-07 04:28:00,60.5,59.7,29.85,West,271,0.0,0.0,97,0.00,,OVC006,0.00,VWS V14.01,2013-08-07 09:28:00,
2013-08-07 04:33:00,60.6,59.8,29.84,West,271,0.0,0.0,97,0.00,,OVC006,0.00,VWS V14.01,2013-08-07 09:33:00,
2013-08-07 04:38:00,60.7,59.8,29.85,West,271,0.0,0.0,97,0.00,,OVC006,0.00,VWS V14.01,2013-08-07 09:38:00,
2013-08-07 04:43:00,60.8,60.0,29.85,West,271,0.0,0.0,97,0.00,,OVC006,0.00,VWS V14.01,2013-08-07 09:43:00,
2013-08-07 04:48:00,60.9,60.0,29.85,West,271,0.0,0.0,97,0.00,,OVC006,0.00,VWS V14.01,2013-08-07 09:48:00,
2013-08-07 04:54:00,61.0,60.2,29.85,West,271,0.0,0.0,97,0.00,,OVC006,0.00,VWS V14.01,2013-08-07 09:54:00,
2013-08-07 04:59:00,61.0,60.2,29.85,West,271,0.0,0.0,97,0.00,,OVC006,0.00,VWS V14.01,2013-08-07 09:59:00,
2013-08-07 05:04:00,61.1,60.2,29.86,West,271,0.0,0.0,97,0.00,,OVC006,0.00,VWS V14.01,2013-08-07 10:04:00,
2013-08-07 05:09:00,61.1,60.2,29.86,West,272,0.0,4.0,97,0.00,,OVC006,0.00,VWS V14.01,2013-08-07 10:09:00,
2013-08-07 05:14:00,61.2,60.3,29.86,West,272,0.0,0.0,97,0.00,,OVC006,0.00,VWS V14.01,2013-08-07 10:14:00,
2013-08-07 05:19:00,61.3,60.4,29.86,West,272,2.0,3.0,97,0.00,,OVC006,0.00,VWS V14.01,2013-08-07 10:19:00,
2013-08-07 05:24:00,61.4,60.5,29.86,West,272,0.0,0.0,97,0.00,,OVC008,0.00,VWS V14.01,2013-08-07 10:24:00,
2013-08-07 05:29:00,61.4,60.5,29.86,WNW,300,0.0,3.0,97,0.00,,OVC008,0.00,VWS V14.01,2013-08-07 10:29:00,
2013-08-07 05:34:00,61.4,60.5,29.87,WNW,300,0.0,0.0,97,0.00,,OVC008,0.00,VWS V14.01,2013-08-07 10:34:00,
2013-08-07 05:39:00,61.4,60.5,29.87,WNW,300,0.0,0.0,97,0.00,,OVC008,0.00,VWS V14.01,2013-08-07 10:39:00,
2013-08-07 05:44:00,61.4,60.5,29.87,WNW,300,0.0,1.0,97,0.00,,OVC008,0.00,VWS V14.01,2013-08-07 10:44:00,
2013-08-07 05:50:00,61.4,60.5,29.86,NW,305,1.0,1.0,97,0.00,,OVC008,0.00,VWS V14.01,2013-08-07 10:50:00,
2013-08-07 05:55:00,61.4,60.5,29.87,NW,306,0.0,0.0,97,0.00,,OVC008,0.00,VWS V14.01,2013-08-07 10:55:00,
2013-08-07 06:00:00,61.4,60.5,29.87,NW,306,0.0,0.0,97,0.00,,OVC010,0.00,VWS V14.01,2013-08-07 11:00:00,
2013-08-07 06:05:00,61.4,60.5,29.88,NW,306,0.0,0.0,97,0.00,,OVC010,0.00,VWS V14.01,2013-08-07 11:05:00,
2013-08-07 06:10:00,61.4,60.5,29.88,WNW,288,0.0,4.0,97,0.00,,OVC010,0.00,VWS V14.01,2013-08-07 11:10:00,
2013-08-07 06:15:00,61.4,60.5,29.88,WNW,288,0.0,0.0,97,0.00,,OVC010,0.00,VWS V14.01,2013-08-07 11:15:00,
2013-08-07 06:21:00,61.3,60.4,29.88,WNW,288,0.0,1.0,97,0.00,,OVC008,0.00,VWS V14.01,2013-08-07 11:21:00,
2013-08-07 06:26:00,61.2,60.3,29.88,WNW,286,0.0,0.0,97,0.00,,OVC008,0.00,VWS V14.01,2013-08-07 11:26:00,
2013-08-07 06:31:00,61.1,60.2,29.89,WNW,286,0.0,0.0,97,0.00,,OVC008,0.00,VWS V14.01,2013-08-07 11:31:00,
2013-08-07 06:36:00,61.0,60.2,29.89,NNW,340,0.0,1.0,97,0.00,,OVC008,0.00,VWS V14.01,2013-08-07 11:36:00,
2013-08-07 06:41:00,61.0,60.2,29.89,ENE,57,0.0,0.0,97,0.00,,OVC008,0.00,VWS V14.01,2013-08-07 11:41:00,
2013-08-07 06:46:00,61.0,60.2,29.89,NNE,23,0.0,0.0,97,0.00,,OVC008,0.00,VWS V14.01,2013-08-07 11:46:00,
2013-08-07 06:52:00,61.0,60.2,29.89,WNW,300,0.0,0.0,97,0.00,,OVC008,0.00,VWS V14.01,2013-08-07 11:52:00,
2013-08-07 06:57:00,61.0,60.2,29.89,WNW,300,0.0,0.0,97,0.00,,OVC008,0.00,VWS V14.01,2013-08-07 11:57:00,
2013-08-07 07:02:00,61.0,60.2,29.90,WNW,300,0.0,0.0,97,0.00,,OVC012,0.00,VWS V14.01,2013-08-07 12:02:00,
2013-08-07 07:08:00,61.0,60.2,29.90,WNW,300,0.0,0.0,97,0.00,,OVC012,0.00,VWS V14.01,2013-08-07 12:08:00,
2013-08-07 07:13:00,61.0,60.2,29.90,WNW,300,0.0,1.0,97,0.00,,OVC012,0.00,VWS V14.01,2013-08-07 12:13:00,
2013-08-07 07:18:00,60.8,60.0,29.90,East,84,0.0,3.0,97,0.00,,OVC012,0.00,VWS V14.01,2013-08-07 12:18:00,
2013-08-07 07:23:00,60.7,59.8,29.91,ENE,67,0.0,0.0,97,0.00,,OVC011,0.00,VWS V14.01,2013-08-07 12:23:00,
2013-08-07 07:28:00,60.6,59.8,29.91,NW,317,0.0,2.0,97,0.00,,OVC011,0.00,VWS V14.01,2013-08-07 12:28:00,
2013-08-07 07:33:00,60.5,59.7,29.91,NW,316,0.0,0.0,97,0.00,,OVC011,0.00,VWS V14.01,2013-08-07 12:33:00,
2013-08-07 07:38:00,60.4,59.5,29.91,NW,316,0.0,1.0,97,0.00,,OVC011,0.00,VWS V14.01,2013-08-07 12:38:00,
2013-08-07 07:43:00,60.3,59.5,29.92,NW,317,0.0,0.0,97,0.00,,OVC011,0.00,VWS V14.01,2013-08-07 12:43:00,
2013-08-07 07:49:00,60.3,59.5,29.92,WNW,283,0.0,0.0,97,0.00,,OVC011,0.00,VWS V14.01,2013-08-07 12:49:00,
2013-08-07 07:54:00,60.3,59.5,29.91,West,278,0.0,0.0,97,0.00,,OVC011,0.00,VWS V14.01,2013-08-07 12:54:00,
2013-08-07 07:59:00,60.4,59.5,29.92,West,280,0.0,0.0,97,0.00,,OVC011,0.00,VWS V14.01,2013-08-07 12:59:00,
2013-08-07 08:04:00,60.4,59.5,29.92,NNE,28,0.0,5.0,97,0.00,,OVC013,0.00,VWS V14.01,2013-08-07 13:04:00,
2013-08-07 08:09:00,60.3,59.5,29.92,NNW,336,0.0,0.0,97,0.00,,OVC013,0.00,VWS V14.01,2013-08-07 13:09:00,
2013-08-07 08:14:00,60.4,59.5,29.92,WNW,294,2.0,2.0,97,0.00,,OVC013,0.00,VWS V14.01,2013-08-07 13:14:00,
2013-08-07 08:19:00,60.4,59.5,29.92,NNE,14,0.0,1.0,97,0.00,,OVC013,0.00,VWS V14.01,2013-08-07 13:19:00,
2013-08-07 08:24:00,60.3,59.5,29.92,NW,305,2.0,3.0,97,0.00,,OVC013,0.00,VWS V14.01,2013-08-07 13:24:00,
2013-08-07 08:29:00,60.3,59.5,29.92,NW,306,0.0,0.0,97,0.00,,OVC013,0.00,VWS V14.01,2013-08-07 13:29:00,
2013-08-07 08:34:00,60.4,59.5,29.93,WNW,300,0.0,0.0,97,0.00,,OVC013,0.00,VWS V14.01,2013-08-07 13:34:00,
2013-08-07 08:39:00,60.4,59.5,29.93,NNE,13,0.0,0.0,97,0.00,,OVC013,0.00,VWS V14.01,2013-08-07 13:39:00,
2013-08-07 08:44:00,60.4,59.5,29.93,NNE,27,0.0,0.0,97,0.00,,OVC015,0.00,VWS V14.01,2013-08-07 13:44:00,
2013-08-07 08:49:00,60.4,59.5,29.93,WNW,294,0.0,0.0,97,0.00,,OVC015,0.00,VWS V14.01,2013-08-07 13:49:00,
2013-08-07 08:54:00,60.4,59.5,29.94,WNW,298,0.0,1.0,97,0.00,,OVC015,0.00,VWS V14.01,2013-08-07 13:54:00,
2013-08-07 08:59:00,60.5,59.7,29.94,WNW,297,0.0,0.0,97,0.00,,OVC015,0.00,VWS V14.01,2013-08-07 13:59:00,
2013-08-07 09:05:00,60.8,60.0,29.94,WNW,297,0.0,0.0,97,0.00,,OVC019,0.00,VWS V14.01,2013-08-07 14:05:00,
2013-08-07 09:10:00,60.8,60.0,29.94,WNW,299,0.0,0.0,97,0.00,,OVC019,0.00,VWS V14.01,2013-08-07 14:10:00,
2013-08-07 09:15:00,60.8,60.0,29.94,WNW,301,0.0,0.0,97,0.00,,OVC019,0.00,VWS V14.01,2013-08-07 14:15:00,
2013-08-07 09:20:00,60.9,59.8,29.94,NW,315,0.0,0.0,96,0.00,,OVC019,0.00,VWS V14.01,2013-08-07 14:20:00,
2013-08-07 09:25:00,60.9,59.8,29.95,WNW,302,2.0,2.0,96,0.00,,OVC019,0.00,VWS V14.01,2013-08-07 14:25:00,
2013-08-07 09:30:00,61.2,60.0,29.95,SW,220,0.0,0.0,96,0.00,,OVC019,0.00,VWS V14.01,2013-08-07 14:30:00,
2013-08-07 09:35:00,61.4,60.2,29.95,West,266,0.0,0.0,96,0.00,,OVC019,0.00,VWS V14.01,2013-08-07 14:35:00,
2013-08-07 09:40:00,61.8,60.7,29.95,NW,307,0.0,4.0,96,0.00,,BKN020,0.00,VWS V14.01,2013-08-07 14:40:00,
2013-08-07 09:45:00,62.2,60.8,29.95,NW,306,0.0,1.0,95,0.00,,BKN020,0.00,VWS V14.01,2013-08-07 14:45:00,
2013-08-07 09:50:00,62.7,61.0,29.95,WNW,302,0.0,0.0,94,0.00,,BKN020,0.00,VWS V14.01,2013-08-07 14:50:00,
2013-08-07 09:55:00,63.1,61.3,29.95,NNW,345,0.0,2.0,94,0.00,,BKN020,0.00,VWS V14.01,2013-08-07 14:55:00,
2013-08-07 10:01:00,62.9,60.5,29.95,NNW,346,0.0,1.0,92,0.00,,BKN020,0.00,VWS V14.01,2013-08-07 15:01:00,
2013-08-07 10:06:00,63.1,60.7,29.95,WSW,253,0.0,1.0,92,0.00,,BKN020,0.00,VWS V14.01,2013-08-07 15:06:00,
2013-08-07 10:11:00,63.3,60.6,29.95,WNW,284,0.0,0.0,91,0.00,,SCT017,0.00,VWS V14.01,2013-08-07 15:11:00,
2013-08-07 10:16:00,63.0,59.7,29.96,NW,325,0.0,0.0,89,0.00,,SCT017,0.00,VWS V14.01,2013-08-07 15:16:00,
2013-08-07 10:21:00,63.2,60.2,29.96,WNW,301,0.0,4.0,90,0.00,,SCT020,0.00,VWS V14.01,2013-08-07 15:21:00,
2013-08-07 10:27:00,63.3,59.7,29.96,WNW,298,0.0,0.0,88,0.00,,SCT020,0.00,VWS V14.01,2013-08-07 15:27:00,
2013-08-07 10:32:00,63.5,60.2,29.97,NNW,344,0.0,0.0,89,0.00,,SCT020,0.00,VWS V14.01,2013-08-07 15:32:00,
2013-08-07 10:37:00,63.9,60.3,29.97,West,268,0.0,0.0,88,0.00,,SCT020,0.00,VWS V14.01,2013-08-07 15:37:00,
2013-08-07 10:42:00,64.0,60.1,29.97,West,268,0.0,0.0,87,0.00,,CLR,0.00,VWS V14.01,2013-08-07 15:42:00,
2013-08-07 10:47:00,64.4,60.5,29.97,WNW,296,0.0,1.0,87,0.00,,CLR,0.00,VWS V14.01,2013-08-07 15:47:00,
2013-08-07 10:52:00,64.5,60.2,29.97,West,278,0.0,1.0,86,0.00,,CLR,0.00,VWS V14.01,2013-08-07 15:52:00,
2013-08-07 10:57:00,65.1,60.5,29.97,West,280,0.0,0.0,85,0.00,,CLR,0.00,VWS V14.01,2013-08-07 15:57:00,
2013-08-07 11:03:00,66.1,61.5,29.97,West,277,0.0,1.0,85,0.00,,SCT026,0.00,VWS V14.01,2013-08-07 16:03:00,
2013-08-07 11:08:00,66.4,60.7,29.97,NW,308,0.0,0.0,82,0.00,,SCT026,0.00,VWS V14.01,2013-08-07 16:08:00,
2013-08-07 11:13:00,66.7,61.4,29.98,NW,313,0.0,2.0,83,0.00,,SCT026,0.00,VWS V14.01,2013-08-07 16:13:00,
2013-08-07 11:18:00,67.1,61.8,29.97,NW,304,0.0,0.0,83,0.00,,SCT026,0.00,VWS V14.01,2013-08-07 16:18:00,
2013-08-07 11:23:00,67.3,61.3,29.97,NW,309,0.0,5.0,81,0.00,,CLR,0.00,VWS V14.01,2013-08-07 16:23:00,
2013-08-07 11:28:00,67.4,60.7,29.98,NNW,331,0.0,0.0,79,0.00,,CLR,0.00,VWS V14.01,2013-08-07 16:28:00,
2013-08-07 11:33:00,67.6,60.9,29.98,West,277,0.0,1.0,79,0.00,,CLR,0.00,VWS V14.01,2013-08-07 16:33:00,
2013-08-07 11:38:00,67.7,61.0,29.98,West,259,0.0,1.0,79,0.00,,CLR,0.00,VWS V14.01,2013-08-07 16:38:00,
2013-08-07 11:43:00,67.6,60.1,29.99,West,260,0.0,0.0,77,0.00,,CLR,0.00,VWS V14.01,2013-08-07 16:43:00,
2013-08-07 11:48:00,67.5,60.0,29.99,West,260,0.0,0.0,77,0.00,,CLR,0.00,VWS V14.01,2013-08-07 16:48:00,
2013-08-07 11:54:00,67.9,60.4,29.99,West,263,0.0,0.0,77,0.00,,CLR,0.00,VWS V14.01,2013-08-07 16:54:00,
2013-08-07 11:59:00,68.1,59.9,29.99,WSW,244,0.0,0.0,75,0.00,,CLR,0.00,VWS V14.01,2013-08-07 16:59:00,
2013-08-07 12:04:00,68.2,60.0,29.99,SSW,209,0.0,0.0,75,0.00,,CLR,0.00,VWS V14.01,2013-08-07 17:04:00,
2013-08-07 12:09:00,68.5,60.3,29.99,WNW,284,0.0,0.0,75,0.00,,CLR,0.00,VWS V14.01,2013-08-07 17:09:00,
2013-08-07 12:14:00,68.7,60.5,29.99,WNW,296,2.0,2.0,75,0.00,,CLR,0.00,VWS V14.01,2013-08-07 17:14:00,
2013-08-07 12:20:00,69.3,60.7,29.99,NW,319,0.0,1.0,74,0.00,,SCT036,0.00,VWS V14.01,2013-08-07 17:20:00,
2013-08-07 12:25:00,69.5,60.1,30.00,NNW,327,0.0,1.0,72,0.00,,SCT036,0.00,VWS V14.01,2013-08-07 17:25:00,
2013-08-07 12:30:00,69.8,60.0,30.00,NW,315,0.0,0.0,71,0.00,,SCT036,0.00,VWS V14.01,2013-08-07 17:30:00,
2013-08-07 12:36:00,69.7,58.7,29.99,WNW,283,0.0,1.0,68,0.00,,SCT036,0.00,VWS V14.01,2013-08-07 17:36:00,
2013-08-07 12:41:00,69.8,60.0,30.00,WNW,302,0.0,0.0,71,0.00,,SCT036,0.00,VWS V14.01,2013-08-07 17:41:00,
2013-08-07 12:47:00,69.9,57.6,30.00,WNW,294,0.0,2.0,65,0.00,,SCT036,0.00,VWS V14.01,2013-08-07 17:47:00,
2013-08-07 12:52:00,70.3,60.5,30.00,WNW,296,0.0,0.0,71,0.00,,SCT036,0.00,VWS V14.01,2013-08-07 17:52:00,
2013-08-07 12:57:00,70.7,60.8,30.00,NW,319,0.0,1.0,71,0.00,,SCT036,0.00,VWS V14.01,2013-08-07 17:57:00,
2013-08-07 13:03:00,70.9,60.6,30.00,NW,306,0.0,1.0,70,0.00,,SCT038,0.00,VWS V14.01,2013-08-07 18:03:00,
2013-08-07 13:08:00,71.1,60.4,30.00,NW,310,0.0,1.0,69,0.00,,SCT038,0.00,VWS V14.01,2013-08-07 18:08:00,
2013-08-07 13:13:00,71.2,60.5,30.00,NW,317,0.0,0.0,69,0.00,,SCT038,0.00,VWS V14.01,2013-08-07 18:13:00,
2013-08-07 13:19:00,71.4,61.1,30.00,WNW,300,0.0,0.0,70,0.00,,SCT038,0.00,VWS V14.01,2013-08-07 18:19:00,
2013-08-07 13:25:00,71.8,59.8,30.00,NW,306,0.0,2.0,66,0.00,,SCT042,0.00,VWS V14.01,2013-08-07 18:25:00,
2013-08-07 13:30:00,71.8,60.3,30.00,NW,324,0.0,1.0,67,0.00,,SCT042,0.00,VWS V14.01,2013-08-07 18:30:00,
2013-08-07 13:35:00,71.9,60.4,30.00,NW,323,0.0,0.0,67,0.00,,SCT042,0.00,VWS V14.01,2013-08-07 18:35:00,
2013-08-07 13:41:00,72.2,60.2,30.00,NNE,20,0.0,0.0,66,0.00,,SCT044,0.00,VWS V14.01,2013-08-07 18:41:00,
2013-08-07 13:46:00,72.1,57.9,30.00,North,355,0.0,0.0,61,0.00,,SCT044,0.00,VWS V14.01,2013-08-07 18:46:00,
2013-08-07 13:51:00,72.1,59.7,30.00,NNW,344,0.0,1.0,65,0.00,,SCT044,0.00,VWS V14.01,2013-08-07 18:51:00,
2013-08-07 13:56:00,72.4,60.8,30.00,NW,311,0.0,0.0,67,0.00,,SCT044,0.00,VWS V14.01,2013-08-07 18:56:00,
2013-08-07 14:01:00,72.7,60.3,29.99,NW,311,0.0,0.0,65,0.00,,SCT044,0.00,VWS V14.01,2013-08-07 19:01:00,
2013-08-07 14:06:00,73.0,60.5,29.99,NW,304,0.0,0.0,65,0.00,,SCT044,0.00,VWS V14.01,2013-08-07 19:06:00,
2013-08-07 14:11:00,72.9,61.3,29.99,NW,304,0.0,0.0,67,0.00,,SCT044,0.00,VWS V14.01,2013-08-07 19:11:00,
2013-08-07 14:16:00,72.9,59.6,29.99,West,273,0.0,0.0,63,0.00,,SCT044,0.00,VWS V14.01,2013-08-07 19:16:00,
2013-08-07 14:21:00,73.1,60.7,29.99,NW,313,0.0,1.0,65,0.00,,SCT046,0.00,VWS V14.01,2013-08-07 19:21:00,
2013-08-07 14:26:00,73.2,60.7,29.99,NW,310,0.0,0.0,65,0.00,,SCT046,0.00,VWS V14.01,2013-08-07 19:26:00,
2013-08-07 14:31:00,73.0,57.4,29.99,NNE,17,0.0,4.0,58,0.00,,SCT046,0.00,VWS V14.01,2013-08-07 19:31:00,
2013-08-07 14:36:00,73.1,60.7,29.99,West,281,0.0,1.0,65,0.00,,SCT046,0.00,VWS V14.01,2013-08-07 19:36:00,
2013-08-07 14:41:00,73.4,58.7,29.99,West,281,0.0,0.0,60,0.00,,CLR,0.00,VWS V14.01,2013-08-07 19:41:00,
2013-08-07 14:46:00,73.6,58.4,29.99,SW,227,0.0,0.0,59,0.00,,CLR,0.00,VWS V14.01,2013-08-07 19:46:00,
2013-08-07 14:52:00,73.9,59.6,29.99,WNW,300,0.0,2.0,61,0.00,,CLR,0.00,VWS V14.01,2013-08-07 19:52:00,
2013-08-07 14:57:00,74.1,59.3,29.99,WNW,301,0.0,0.0,60,0.00,,CLR,0.00,VWS V14.01,2013-08-07 19:57:00,
2013-08-07 15:02:00,74.0,57.3,29.99,WNW,300,0.0,1.0,56,0.00,,CLR,0.00,VWS V14.01,2013-08-07 20:02:00,
2013-08-07 15:07:00,73.9,60.5,29.99,WNW,289,0.0,0.0,63,0.00,,CLR,0.00,VWS V14.01,2013-08-07 20:07:00,
2013-08-07 15:13:00,74.0,58.8,29.99,NW,313,0.0,0.0,59,0.00,,CLR,0.00,VWS V14.01,2013-08-07 20:13:00,
2013-08-07 15:18:00,74.2,61.2,29.99,WNW,290,0.0,0.0,64,0.00,,CLR,0.00,VWS V14.01,2013-08-07 20:18:00,
2013-08-07 15:23:00,74.3,59.1,29.99,NW,320,0.0,0.0,59,0.00,,CLR,0.00,VWS V14.01,2013-08-07 20:23:00,
2013-08-07 15:29:00,74.2,58.0,29.99,WNW,302,1.0,1.0,57,0.00,,CLR,0.00,VWS V14.01,2013-08-07 20:29:00,
2013-08-07 15:35:00,74.3,59.5,29.99,WNW,287,0.0,1.0,60,0.00,,CLR,0.00,VWS V14.01,2013-08-07 20:35:00,
2013-08-07 15:40:00,73.9,57.2,29.99,WNW,292,0.0,1.0,56,0.00,,CLR,0.00,VWS V14.01,2013-08-07 20:40:00,
2013-08-07 15:45:00,74.3,59.1,29.99,NW,316,0.0,2.0,59,0.00,,CLR,0.00,VWS V14.01,2013-08-07 20:45:00,
2013-08-07 15:50:00,74.4,58.7,29.99,NW,313,0.0,1.0,58,0.00,,CLR,0.00,VWS V14.01,2013-08-07 20:50:00,
2013-08-07 15:55:00,74.3,59.5,29.99,NNW,341,0.0,4.0,60,0.00,,CLR,0.00,VWS V14.01,2013-08-07 20:55:00,
2013-08-07 16:01:00,74.3,59.5,29.99,NW,306,0.0,2.0,60,0.00,,CLR,0.00,VWS V14.01,2013-08-07 21:01:00,
2013-08-07 16:06:00,74.4,58.2,29.98,NW,309,0.0,0.0,57,0.00,,CLR,0.00,VWS V14.01,2013-08-07 21:06:00,
2013-08-07 16:12:00,74.8,57.1,29.98,NW,309,0.0,0.0,54,0.00,,CLR,0.00,VWS V14.01,2013-08-07 21:12:00,
2013-08-07 16:17:00,75.4,60.6,29.98,North,360,0.0,1.0,60,0.00,,CLR,0.00,VWS V14.01,2013-08-07 21:17:00,
2013-08-07 16:22:00,75.6,59.8,29.98,NW,326,0.0,0.0,58,0.00,,CLR,0.00,VWS V14.01,2013-08-07 21:22:00,
2013-08-07 16:27:00,75.5,56.7,29.98,WNW,294,0.0,0.0,52,0.00,,CLR,0.00,VWS V14.01,2013-08-07 21:27:00,
2013-08-07 16:32:00,75.5,58.7,29.98,WNW,292,0.0,0.0,56,0.00,,CLR,0.00,VWS V14.01,2013-08-07 21:32:00,
2013-08-07 16:38:00,75.5,59.7,29.98,NW,308,0.0,0.0,58,0.00,,CLR,0.00,VWS V14.01,2013-08-07 21:38:00,
2013-08-07 16:44:00,75.6,60.3,29.98,NW,308,0.0,0.0,59,0.00,,CLR,0.00,VWS V14.01,2013-08-07 21:44:00,
2013-08-07 16:49:00,75.3,59.0,29.99,WNW,301,0.0,0.0,57,0.00,,CLR,0.00,VWS V14.01,2013-08-07 21:49:00,
2013-08-07 16:54:00,74.9,56.6,29.98,WNW,297,0.0,0.0,53,0.00,,CLR,0.00,VWS V14.01,2013-08-07 21:54:00,
2013-08-07 16:59:00,74.8,54.4,29.98,NNW,336,0.0,0.0,49,0.00,,CLR,0.00,VWS V14.01,2013-08-07 21:59:00,
2013-08-07 17:04:00,74.8,56.5,29.99,NNW,339,0.0,0.0,53,0.00,,CLR,0.00,VWS V14.01,2013-08-07 22:04:00,
2013-08-07 17:09:00,74.7,57.5,29.98,NNW,340,0.0,0.0,55,0.00,,CLR,0.00,VWS V14.01,2013-08-07 22:09:00,
2013-08-07 17:15:00,74.7,59.4,29.99,NW,313,0.0,0.0,59,0.00,,CLR,0.00,VWS V14.01,2013-08-07 22:15:00,
2013-08-07 17:20:00,74.7,58.0,29.99,West,259,0.0,0.0,56,0.00,,CLR,0.00,VWS V14.01,2013-08-07 22:20:00,
2013-08-07 17:25:00,74.6,57.9,29.99,West,269,0.0,0.0,56,0.00,,CLR,0.00,VWS V14.01,2013-08-07 22:25:00,
2013-08-07 17:30:00,74.7,57.5,29.99,WNW,293,0.0,2.0,55,0.00,,CLR,0.00,VWS V14.01,2013-08-07 22:30:00,
2013-08-07 17:35:00,74.7,57.5,29.99,WNW,293,0.0,0.0,55,0.00,,CLR,0.00,VWS V14.01,2013-08-07 22:35:00,
2013-08-07 17:41:00,74.5,56.8,29.99,NE,38,0.0,1.0,54,0.00,,CLR,0.00,VWS V14.01,2013-08-07 22:41:00,
2013-08-07 17:47:00,74.4,56.7,29.99,NW,307,0.0,0.0,54,0.00,,CLR,0.00,VWS V14.01,2013-08-07 22:47:00,
2013-08-07 17:52:00,74.4,56.7,29.99,WNW,294,0.0,1.0,54,0.00,,CLR,0.00,VWS V14.01,2013-08-07 22:52:00,
2013-08-07 17:57:00,74.7,56.5,29.99,WNW,301,0.0,3.0,53,0.00,,CLR,0.00,VWS V14.01,2013-08-07 22:57:00,
2013-08-07 18:02:00,74.4,56.7,29.98,NNW,344,0.0,1.0,54,0.00,,CLR,0.00,VWS V14.01,2013-08-07 23:02:00,
2013-08-07 18:07:00,74.0,58.3,29.99,NW,305,0.0,0.0,58,0.00,,CLR,0.00,VWS V14.01,2013-08-07 23:07:00,
2013-08-07 18:12:00,73.8,57.6,29.99,NW,304,0.0,0.0,57,0.00,,CLR,0.00,VWS V14.01,2013-08-07 23:12:00,
2013-08-07 18:17:00,73.3,56.7,29.99,WNW,302,0.0,3.0,56,0.00,,CLR,0.00,VWS V14.01,2013-08-07 23:17:00,
2013-08-07 18:22:00,72.6,57.9,29.99,NNW,333,0.0,0.0,60,0.00,,CLR,0.00,VWS V14.01,2013-08-07 23:22:00,
2013-08-07 18:27:00,71.9,55.9,29.99,West,273,0.0,2.0,57,0.00,,CLR,0.00,VWS V14.01,2013-08-07 23:27:00,
2013-08-07 18:33:00,71.4,55.4,29.99,WNW,286,0.0,1.0,57,0.00,,CLR,0.00,VWS V14.01,2013-08-07 23:33:00,
2013-08-07 18:38:00,71.0,55.0,29.99,WNW,286,0.0,0.0,57,0.00,,CLR,0.00,VWS V14.01,2013-08-07 23:38:00,
2013-08-07 18:43:00,70.8,56.2,29.99,WNW,286,1.0,1.0,60,0.00,,CLR,0.00,VWS V14.01,2013-08-07 23:43:00,
2013-08-07 18:48:00,70.6,56.5,29.99,WNW,286,0.0,0.0,61,0.00,,CLR,0.00,VWS V14.01,2013-08-07 23:48:00,
2013-08-07 18:53:00,70.3,55.8,29.99,WNW,286,0.0,0.0,60,0.00,,CLR,0.00,VWS V14.01,2013-08-07 23:53:00,
2013-08-07 18:58:00,70.1,56.5,29.99,WNW,287,0.0,0.0,62,0.00,,CLR,0.00,VWS V14.01,2013-08-07 23:58:00,
2013-08-07 19:03:00,69.7,55.7,29.99,West,271,0.0,3.0,61,0.00,,CLR,0.00,VWS V14.01,2013-08-08 00:03:00,
2013-08-07 19:08:00,69.5,55.9,29.99,West,271,0.0,0.0,62,0.00,,CLR,0.00,VWS V14.01,2013-08-08 00:08:00,
2013-08-07 19:13:00,69.2,55.6,29.99,West,271,0.0,0.0,62,0.00,,CLR,0.00,VWS V14.01,2013-08-08 00:13:00,
2013-08-07 19:18:00,68.9,55.4,29.99,West,271,0.0,0.0,62,0.00,,CLR,0.00,VWS V14.01,2013-08-08 00:18:00,
2013-08-07 19:23:00,68.7,54.7,29.99,West,271,0.0,0.0,61,0.00,,CLR,0.00,VWS V14.01,2013-08-08 00:23:00,
2013-08-07 19:28:00,68.5,55.4,29.99,West,271,0.0,0.0,63,0.00,,CLR,0.00,VWS V14.01,2013-08-08 00:28:00,
2013-08-07 19:34:00,68.2,55.6,29.99,West,271,0.0,1.0,64,0.00,,CLR,0.00,VWS V14.01,2013-08-08 00:34:00,
2013-08-07 19:39:00,68.0,56.2,29.99,West,271,0.0,0.0,66,0.00,,CLR,0.00,VWS V14.01,2013-08-08 00:39:00,
2013-08-07 19:44:00,67.7,56.0,29.99,West,271,0.0,0.0,66,0.00,,CLR,0.00,VWS V14.01,2013-08-08 00:44:00,
2013-08-07 19:49:00,67.5,56.2,29.99,West,271,0.0,0.0,67,0.00,,CLR,0.00,VWS V14.01,2013-08-08 00:49:00,
2013-08-07 19:54:00,67.2,56.3,29.99,West,271,0.0,0.0,68,0.00,,CLR,0.00,VWS V14.01,2013-08-08 00:54:00,
2013-08-07 20:00:00,66.8,56.3,29.99,West,271,0.0,0.0,69,0.00,,CLR,0.00,VWS V14.01,2013-08-08 01:00:00,
2013-08-07 20:06:00,66.5,56.4,29.99,West,271,0.0,0.0,70,0.00,,CLR,0.00,VWS V14.01,2013-08-08 01:06:00,
2013-08-07 20:11:00,66.1,56.4,29.99,West,271,0.0,0.0,71,0.00,,CLR,0.00,VWS V14.01,2013-08-08 01:11:00,
2013-08-07 20:16:00,65.8,56.9,29.99,West,271,0.0,0.0,73,0.00,,CLR,0.00,VWS V14.01,2013-08-08 01:16:00,
2013-08-07 20:21:00,65.5,57.4,30.00,West,271,0.0,0.0,75,0.00,,CLR,0.00,VWS V14.01,2013-08-08 01:21:00,
2013-08-07 20:26:00,65.2,58.2,30.00,West,271,0.0,0.0,78,0.00,,CLR,0.00,VWS V14.01,2013-08-08 01:26:00,
2013-08-07 20:31:00,64.7,57.3,30.00,West,271,0.0,0.0,77,0.00,,CLR,0.00,VWS V14.01,2013-08-08 01:31:00,
2013-08-07 20:36:00,64.0,57.0,30.00,West,271,0.0,0.0,78,0.00,,CLR,0.00,VWS V14.01,2013-08-08 01:36:00,
2013-08-07 20:41:00,63.5,57.2,30.01,West,271,0.0,0.0,80,0.00,,CLR,0.00,VWS V14.01,2013-08-08 01:41:00,
2013-08-07 20:46:00,63.0,56.7,30.01,West,271,0.0,0.0,80,0.00,,CLR,0.00,VWS V14.01,2013-08-08 01:46:00,
2013-08-07 20:52:00,62.4,55.5,30.01,West,271,0.0,0.0,78,0.00,,CLR,0.00,VWS V14.01,2013-08-08 01:52:00,
2013-08-07 20:57:00,62.0,55.4,30.01,West,271,0.0,0.0,79,0.00,,CLR,0.00,VWS V14.01,2013-08-08 01:57:00,
2013-08-07 21:03:00,61.6,55.4,30.01,West,271,0.0,0.0,80,0.00,,CLR,0.00,VWS V14.01,2013-08-08 02:03:00,
2013-08-07 21:08:00,61.5,56.0,30.01,West,271,0.0,0.0,82,0.00,,CLR,0.00,VWS V14.01,2013-08-08 02:08:00,
2013-08-07 21:13:00,61.3,56.4,30.02,West,271,0.0,0.0,84,0.00,,CLR,0.00,VWS V14.01,2013-08-08 02:13:00,
2013-08-07 21:18:00,61.1,56.2,30.02,West,271,0.0,0.0,84,0.00,,CLR,0.00,VWS V14.01,2013-08-08 02:18:00,
2013-08-07 21:23:00,60.8,55.9,30.02,West,271,0.0,0.0,84,0.00,,CLR,0.00,VWS V14.01,2013-08-08 02:23:00,
2013-08-07 21:28:00,60.4,55.2,30.03,West,271,0.0,0.0,83,0.00,,CLR,0.00,VWS V14.01,2013-08-08 02:28:00,
2013-08-07 21:33:00,60.2,55.7,30.03,West,271,0.0,0.0,85,0.00,,CLR,0.00,VWS V14.01,2013-08-08 02:33:00,
2013-08-07 21:38:00,60.0,54.8,30.03,West,271,0.0,0.0,83,0.00,,CLR,0.00,VWS V14.01,2013-08-08 02:38:00,
2013-08-07 21:44:00,59.7,54.9,30.03,West,271,0.0,0.0,84,0.00,,CLR,0.00,VWS V14.01,2013-08-08 02:44:00,
2013-08-07 21:49:00,59.5,54.3,30.03,West,271,0.0,0.0,83,0.00,,CLR,0.00,VWS V14.01,2013-08-08 02:49:00,
2013-08-07 21:54:00,59.3,54.8,30.03,West,271,0.0,0.0,85,0.00,,CLR,0.00,VWS V14.01,2013-08-08 02:54:00,
2013-08-07 21:59:00,59.1,54.3,30.03,West,271,0.0,0.0,84,0.00,,CLR,0.00,VWS V14.01,2013-08-08 02:59:00,
2013-08-07 22:04:00,59.0,54.2,30.04,West,271,0.0,0.0,84,0.00,,CLR,0.00,VWS V14.01,2013-08-08 03:04:00,
2013-08-07 22:09:00,58.7,53.9,30.04,West,271,0.0,0.0,84,0.00,,CLR,0.00,VWS V14.01,2013-08-08 03:09:00,
2013-08-07 22:15:00,58.6,54.1,30.04,West,272,0.0,0.0,85,0.00,,CLR,0.00,VWS V14.01,2013-08-08 03:15:00,
2013-08-07 22:20:00,58.4,53.9,30.04,West,271,0.0,0.0,85,0.00,,CLR,0.00,VWS V14.01,2013-08-08 03:20:00,
2013-08-07 22:25:00,58.2,54.0,30.04,West,271,0.0,0.0,86,0.00,,CLR,0.00,VWS V14.01,2013-08-08 03:25:00,
2013-08-07 22:30:00,58.0,53.5,30.04,West,271,0.0,0.0,85,0.00,,CLR,0.00,VWS V14.01,2013-08-08 03:30:00,
2013-08-07 22:35:00,57.9,53.7,30.04,West,271,0.0,0.0,86,0.00,,CLR,0.00,VWS V14.01,2013-08-08 03:35:00,
2013-08-07 22:40:00,57.8,53.7,30.04,West,271,0.0,0.0,86,0.00,,CLR,0.00,VWS V14.01,2013-08-08 03:40:00,
2013-08-07 22:45:00,57.7,53.9,30.04,West,271,0.0,0.0,87,0.00,,CLR,0.00,VWS V14.01,2013-08-08 03:45:00,
2013-08-07 22:50:00,57.6,53.5,30.04,West,271,0.0,0.0,86,0.00,,CLR,0.00,VWS V14.01,2013-08-08 03:50:00,
2013-08-07 22:56:00,57.4,53.2,30.05,West,271,0.0,0.0,86,0.00,,CLR,0.00,VWS V14.01,2013-08-08 03:56:00,
2013-08-07 23:01:00,57.3,53.5,30.05,West,271,0.0,0.0,87,0.00,,CLR,0.00,VWS V14.01,2013-08-08 04:01:00,
2013-08-07 23:02:00,57.3,53.5,30.05,West,271,0.0,0.0,87,0.00,,CLR,0.00,VWS V14.01,2013-08-08 04:02:00,
2013-08-07 23:04:00,57.3,53.5,30.05,West,271,0.0,0.0,87,0.00,,CLR,0.00,VWS V14.01,2013-08-08 04:04:00,
2013-08-07 23:09:00,57.2,53.7,30.05,West,271,0.0,0.0,88,0.00,,CLR,0.00,VWS V14.01,2013-08-08 04:09:00,
2013-08-07 23:15:00,57.2,53.7,30.05,West,271,0.0,0.0,88,0.00,,CLR,0.00,VWS V14.01,2013-08-08 04:15:00,
2013-08-07 23:18:00,57.0,53.2,30.05,West,271,0.0,0.0,87,0.00,,CLR,0.00,VWS V14.01,2013-08-08 04:18:00,
2013-08-07 23:23:00,56.9,53.4,30.05,West,271,0.0,0.0,88,0.00,,CLR,0.00,VWS V14.01,2013-08-08 04:23:00,
2013-08-07 23:29:00,56.9,53.7,30.05,West,271,0.0,0.0,89,0.00,,CLR,0.00,VWS V14.01,2013-08-08 04:29:00,
2013-08-07 23:34:00,56.7,52.9,30.05,West,271,0.0,0.0,87,0.00,,CLR,0.00,VWS V14.01,2013-08-08 04:34:00,
2013-08-07 23:39:00,56.5,52.7,30.05,West,271,0.0,0.0,87,0.00,,CLR,0.00,VWS V14.01,2013-08-08 04:39:00,
2013-08-07 23:44:00,56.4,52.6,30.05,West,271,0.0,0.0,87,0.00,,CLR,0.00,VWS V14.01,2013-08-08 04:44:00,
2013-08-07 23:50:00,56.2,52.4,30.05,West,271,0.0,0.0,87,0.00,,CLR,0.00,VWS V14.01,2013-08-08 04:50:00,
2013-08-07 23:55:00,56.4,53.5,30.05,West,271,0.0,0.0,90,0.00,,CLR,0.00,VWS V14.01,2013-08-08 04:55:00,